| time (UTC) | temp F | wind direction | speed MPH | gust MPH | rain 1hr in | rain 24hr in | rain mn in | humidity % | barometer mb |
| 20260510050021 | 72 | 117 | 3.0 | 0.0 | 0.00 | 0.00 | 0.00 | 76 | 1004.9 |
| 20260510044516 | 73 | 110 | 2.0 | 0.0 | 0.00 | 0.00 | 0.00 | 74 | 1005.1 |
| 20260510043030 | 73 | 108 | 3.0 | 0.0 | 0.00 | 0.00 | 0.00 | 73 | 1005.2 |
| 20260510041522 | 74 | 105 | 4.0 | 0.0 | 0.00 | 0.00 | 0.00 | 71 | 1005.4 |
| 20260510040029 | 74 | 106 | 4.0 | 0.0 | 0.00 | 0.00 | 0.00 | 69 | 1005.4 |
| 20260510034514 | 74 | 96 | 4.0 | 0.0 | 0.00 | 0.00 | 0.00 | 68 | 1005.4 |
| 20260510033014 | 75 | 84 | 3.0 | 0.0 | 0.00 | 0.00 | 0.00 | 65 | 1005.4 |
| 20260510031518 | 76 | 106 | 4.0 | 0.0 | 0.00 | 0.00 | 0.00 | 65 | 1005.5 |
| 20260510030013 | 76 | 105 | 3.0 | 0.0 | 0.00 | 0.00 | 0.00 | 64 | 1005.4 |
| 20260510024515 | 77 | 99 | 3.0 | 0.0 | 0.00 | 0.00 | 0.00 | 64 | 1005.2 |
| 20260510023013 | 77 | 93 | 3.0 | 0.0 | 0.00 | 0.00 | 0.00 | 65 | 1005.0 |
| 20260510021523 | 77 | 94 | 3.0 | 0.0 | 0.00 | 0.00 | 0.00 | 64 | 1004.8 |
| 20260510020011 | 78 | 80 | 3.0 | 0.0 | 0.00 | 0.00 | 0.00 | 65 | 1004.6 |
| 20260510014511 | 78 | 74 | 3.0 | 0.0 | 0.00 | 0.00 | 0.00 | 64 | 1004.4 |
| 20260510013019 | 79 | 74 | 4.0 | 0.0 | 0.00 | 0.00 | 0.00 | 66 | 1004.3 |
| 20260510011510 | 80 | 79 | 4.0 | 0.0 | 0.00 | 0.00 | 0.00 | 67 | 1004.3 |
| 20260510010009 | 81 | 74 | 4.0 | 0.0 | 0.00 | 0.00 | 0.00 | 65 | 1004.2 |
| 20260510004509 | 82 | 82 | 5.0 | 0.0 | 0.00 | 0.00 | 0.00 | 64 | 1003.9 |
| 20260510003009 | 83 | 94 | 6.0 | 0.0 | 0.00 | 0.00 | 0.00 | 63 | 1003.8 |
| 20260510001510 | 84 | 63 | 5.0 | 0.0 | 0.00 | 0.00 | 0.00 | 59 | 1003.8 |
| 20260510000007 | 85 | 68 | 3.0 | 0.0 | 0.00 | 0.00 | 0.00 | 57 | 1003.8 |
| 20260509234507 | 87 | 69 | 2.0 | 0.0 | 0.00 | 0.00 | 0.00 | 54 | 1003.8 |
| 20260509233007 | 87 | 68 | 2.0 | 0.0 | 0.00 | 0.00 | 0.00 | 49 | 1003.8 |
| 20260509231506 | 87 | 68 | 1.0 | 0.0 | 0.00 | 0.00 | 0.00 | 48 | 1003.7 |
| 20260509230008 | 87 | 69 | 3.0 | 0.0 | 0.00 | 0.00 | 0.00 | 51 | 1003.9 |
| 20260509224508 | 87 | 69 | 2.0 | 0.0 | 0.00 | 0.00 | 0.00 | 46 | 1003.8 |
| 20260509223008 | 89 | 67 | 1.0 | 0.0 | 0.00 | 0.00 | 0.00 | 46 | 1003.7 |
| 20260509221504 | 88 | 80 | 2.0 | 0.0 | 0.00 | 0.00 | 0.00 | 46 | 1003.7 |
| 20260509220006 | 89 | 131 | 1.0 | 0.0 | 0.00 | 0.00 | 0.00 | 46 | 1003.7 |
| 20260509214504 | 89 | 176 | 1.0 | 0.0 | 0.00 | 0.00 | 0.00 | 48 | 1003.9 |
| 20260509213003 | 89 | 97 | 2.0 | 0.0 | 0.00 | 0.00 | 0.00 | 44 | 1003.9 |
| 20260509211502 | 90 | 175 | 0.0 | 0.0 | 0.00 | 0.00 | 0.00 | 43 | 1004.3 |
| 20260509210002 | 90 | 250 | 2.0 | 0.0 | 0.00 | 0.00 | 0.00 | 45 | 1004.4 |
| 20260509204501 | 90 | 263 | 1.0 | 0.0 | 0.00 | 0.00 | 0.00 | 42 | 1004.5 |
| 20260509203001 | 90 | 212 | 2.0 | 0.0 | 0.00 | 0.00 | 0.00 | 46 | 1004.9 |
| 20260509201600 | 91 | 11 | 1.0 | 0.0 | 0.00 | 0.00 | 0.00 | 42 | 1005.0 |
| 20260509200057 | 90 | 308 | 1.0 | 0.0 | 0.00 | 0.00 | 0.00 | 41 | 1005.0 |
| 20260509194556 | 90 | 306 | 1.0 | 0.0 | 0.00 | 0.00 | 0.00 | 44 | 1005.1 |
| 20260509193058 | 89 | 298 | 1.0 | 0.0 | 0.00 | 0.00 | 0.00 | 47 | 1005.3 |
| 20260509191601 | 88 | 253 | 2.0 | 0.0 | 0.00 | 0.00 | 0.00 | 49 | 1005.4 |
| 20260509190053 | 88 | 340 | 2.0 | 0.0 | 0.00 | 0.00 | 0.00 | 52 | 1005.5 |
| 20260509184556 | 87 | 355 | 2.0 | 0.0 | 0.00 | 0.00 | 0.00 | 51 | 1005.6 |
| 20260509183051 | 86 | 327 | 3.0 | 0.0 | 0.00 | 0.00 | 0.00 | 55 | 1005.6 |
| 20260509181540 | 86 | 331 | 3.0 | 0.0 | 0.00 | 0.00 | 0.00 | 57 | 1005.6 |
| 20260509180038 | 85 | 261 | 4.0 | 0.0 | 0.00 | 0.00 | 0.00 | 55 | 1005.7 |
| 20260509174545 | 85 | 263 | 2.0 | 0.0 | 0.00 | 0.00 | 0.00 | 56 | 1005.9 |
| 20260509173039 | 85 | 263 | 2.0 | 0.0 | 0.00 | 0.00 | 0.00 | 53 | 1006.1 |
| 20260509171533 | 84 | 335 | 2.0 | 0.0 | 0.00 | 0.00 | 0.00 | 55 | 1006.2 |
| 20260509170031 | 84 | 314 | 2.0 | 0.0 | 0.00 | 0.00 | 0.00 | 54 | 1006.2 |
| 20260509164528 | 83 | 355 | 3.0 | 0.0 | 0.00 | 0.00 | 0.00 | 56 | 1006.2 |
| 20260509163037 | 82 | 263 | 2.0 | 0.0 | 0.00 | 0.00 | 0.00 | 56 | 1006.2 |
| 20260509161523 | 81 | 250 | 2.0 | 0.0 | 0.00 | 0.00 | 0.00 | 59 | 1006.2 |
| 20260509160019 | 80 | 259 | 1.0 | 0.0 | 0.00 | 0.00 | 0.00 | 66 | 1006.2 |
| 20260509154515 | 79 | 263 | 1.0 | 0.0 | 0.00 | 0.00 | 0.00 | 69 | 1006.2 |
| 20260509153015 | 78 | 252 | 2.0 | 0.0 | 0.00 | 0.00 | 0.00 | 70 | 1006.2 |
| 20260509151507 | 76 | 5 | 1.0 | 0.0 | 0.00 | 0.00 | 0.00 | 74 | 1006.2 |
| 20260509150004 | 75 | 247 | 1.0 | 0.0 | 0.00 | 0.00 | 0.00 | 82 | 1006.0 |
| 20260509144600 | 73 | 295 | 1.0 | 0.0 | 0.00 | 0.00 | 0.00 | 83 | 1005.8 |
| 20260509143059 | 73 | 242 | 0.0 | 0.0 | 0.00 | 0.00 | 0.00 | 85 | 1005.9 |
| 20260509141554 | 72 | 256 | 0.0 | 0.0 | 0.00 | 0.00 | 0.00 | 88 | 1006.1 |
| 20260509140051 | 71 | 246 | 1.0 | 0.0 | 0.00 | 0.00 | 0.00 | 89 | 1006.1 |
| 20260509134549 | 70 | 248 | 0.0 | 0.0 | 0.00 | 0.00 | 0.00 | 91 | 1005.8 |
| 20260509133048 | 70 | 248 | 1.0 | 0.0 | 0.00 | 0.00 | 0.00 | 92 | 1005.7 |
| 20260509131547 | 70 | 256 | 2.0 | 0.0 | 0.00 | 0.00 | 0.00 | 93 | 1005.6 |
| 20260509130056 | 69 | 182 | 0.0 | 0.0 | 0.00 | 0.00 | 0.00 | 94 | 1005.2 |
| 20260509124552 | 68 | 182 | 0.0 | 0.0 | 0.00 | 0.00 | 0.00 | 93 | 1005.2 |
| 20260509123046 | 68 | 182 | 0.0 | 0.0 | 0.00 | 0.00 | 0.00 | 93 | 1005.2 |
| 20260509121546 | 68 | 182 | 0.0 | 0.0 | 0.00 | 0.00 | 0.00 | 93 | 1005.3 |
| 20260509120045 | 68 | 182 | 1.0 | 0.0 | 0.00 | 0.00 | 0.00 | 93 | 1005.5 |
| 20260509114553 | 69 | 265 | 0.0 | 0.0 | 0.00 | 0.00 | 0.00 | 93 | 1005.6 |
| 20260509113053 | 69 | 265 | 0.0 | 0.0 | 0.00 | 0.00 | 0.00 | 93 | 1005.5 |
| 20260509111543 | 69 | 267 | 0.0 | 0.0 | 0.00 | 0.00 | 0.00 | 93 | 1005.3 |
| 20260509110042 | 70 | 267 | 1.0 | 0.0 | 0.00 | 0.00 | 0.00 | 93 | 1005.2 |
| 20260509104543 | 69 | 276 | 1.0 | 0.0 | 0.00 | 0.00 | 0.00 | 93 | 1005.1 |
| 20260509103052 | 69 | 271 | 2.0 | 0.0 | 0.00 | 0.00 | 0.00 | 93 | 1004.8 |
| 20260509101557 | 69 | 194 | 4.0 | 0.0 | 0.00 | 0.00 | 0.00 | 93 | 1003.2 |
| 20260509100041 | 69 | 184 | 4.0 | 0.0 | 0.00 | 0.00 | 0.00 | 93 | 1002.7 |
| 20260509094545 | 69 | 160 | 6.0 | 0.0 | 0.00 | 0.00 | 0.00 | 93 | 1002.7 |
| 20260509093040 | 69 | 146 | 6.0 | 0.0 | 0.00 | 0.00 | 0.00 | 93 | 1003.0 |
| 20260509091540 | 68 | 170 | 5.0 | 0.0 | 0.00 | 0.00 | 0.00 | 93 | 1002.9 |
| 20260509090047 | 68 | 165 | 4.0 | 0.0 | 0.00 | 0.00 | 0.00 | 93 | 1003.4 |
| 20260509084542 | 68 | 146 | 2.0 | 0.0 | 0.00 | 0.00 | 0.00 | 93 | 1003.8 |
| 20260509083050 | 68 | 175 | 1.0 | 0.0 | 0.00 | 0.00 | 0.00 | 93 | 1004.5 |
| 20260509081535 | 68 | 188 | 2.0 | 0.0 | 0.00 | 0.00 | 0.00 | 93 | 1005.4 |
| 20260509080036 | 69 | 191 | 4.0 | 0.0 | 0.00 | 0.00 | 0.00 | 93 | 1005.9 |
| 20260509074534 | 69 | 238 | 4.0 | 0.0 | 0.00 | 0.00 | 0.00 | 93 | 1006.9 |
| 20260509073037 | 69 | 233 | 2.0 | 0.0 | 0.00 | 0.00 | 0.00 | 93 | 1006.9 |
| 20260509071541 | 69 | 170 | 1.0 | 0.0 | 0.00 | 0.00 | 0.00 | 93 | 1006.8 |
| 20260509070032 | 69 | 149 | 0.0 | 0.0 | 0.00 | 0.00 | 0.00 | 93 | 1006.8 |
| 20260509064531 | 69 | 126 | 0.0 | 0.0 | 0.00 | 0.00 | 0.00 | 93 | 1006.9 |
| 20260509063033 | 69 | 123 | 0.0 | 0.0 | 0.00 | 0.00 | 0.00 | 93 | 1006.7 |
| 20260509061529 | 68 | 123 | 0.0 | 0.0 | 0.00 | 0.00 | 0.00 | 92 | 1006.8 |
| 20260509060027 | 69 | 123 | 0.0 | 0.0 | 0.00 | 0.00 | 0.00 | 92 | 1006.4 |
| 20260509054530 | 69 | 123 | 0.0 | 0.0 | 0.00 | 0.00 | 0.00 | 92 | 1005.9 |
| 20260509053033 | 69 | 123 | 1.0 | 0.0 | 0.00 | 0.00 | 0.00 | 91 | 1006.2 |
| 20260509051522 | 69 | 123 | 2.0 | 0.0 | 0.00 | 0.00 | 0.00 | 91 | 1005.9 |